METEOR 2-5 DEB, 39602

Orbit data source: Space-Track

METEOR 2-5 DEB, 39602 is space debris in LEO originally from a launch on Wed, 31 Oct 1979 UTC launched from the Plesetsk Missile And Space Complex (PKMTR). Debris objects in space refer to the collection of defunct objects orbiting the Earth. Examples of debris include non-operational satellites, rocket bodies, and fragments generated from explosions, collisions, or faulty payload assembly.

Loading next visibility...
Identifier
39602, 1979-095CD
Orbit
LEO
Country
Flag of CISCIS
Related business
Manufacturer
Unknown
Mission
Spacecraft
Bus & Motor
Unknown
Mass
Unknown
Launch date (UTC)
1979-10-31 (47 years ago)
Launch vehicle
Unknown
Launch site
Plesetsk Missile And Space Complex (PKMTR)
Object type
Payload
Rocket body
Debris
Shape & HBR
Unknown shape, 1.1 m
Radar Cross Section
Medium (>0.1 m² and <1 m²)

Expand to show TLE details & history
Last TLE update: 1 month ago

TLE from 1 month ago
0 METEOR 2-5 DEB
1 39602U 79095CD  26135.63922926  .00281734  00000-0  89444-2 0  9992
2 39602  81.1549 110.6326 0018311 121.8203 238.4820 15.31332399629777
Epoch: 2026-05-15T15:20Z
TLE epoch observation values (Epoch: 2026-05-15T15:20:29.408Z)
Latitude
0.00001°
Longitude
7.14241°
Altitude
481.472 km
Speed
7.621 km/s
True Right ascension
07h 22m 31s
True Declination
0° 00' 00"
Sunlit
Object was in daylight at epoch
Visualization orbit readout
Latitude
Unknown
Longitude
Unknown
Altitude
Unknown
Speed
Unknown
Apparent Right ascension
Unknown
Apparent Declination
Unknown
Sunlit
N/A
Visualization observer readout
Local Sidereal Time
23:18:46
Azimuth
Unknown
Elevation
Unknown
Doppler factor
Unknown
Orbital elements
Apogee altitude
481.392 km
Perigee altitude
456.317 km
Semi-major axis
6,846.991 km
Eccentricity
0.00183
Inclination
81.1549°
RAAN
110.6326°
Arg. of periapsis
121.8203°
True anomaly
238.30334°
Mean anomaly
238.482°
Eccentric anomaly
238.39265°
Mean motion
3.83084 °/min
Orbital period
93.97 mins
BSTAR
0.0089444
Loading maneuver chart data...
Computing Atmospheric mass density...

Documentation

Showing up to 5 results
|